TITAN 3C TRANSTAGE DEB, 35503

Orbit data source: Space-Track

TITAN 3C TRANSTAGE DEB, 35503 is space debris in HEO originally from a launch on Tue, 21 Dec 1965 UTC launched from the Air Force Eastern Test Range (AFETR). Debris objects in space refer to the collection of defunct objects orbiting the Earth. Examples of debris include non-operational satellites, rocket bodies, and fragments generated from explosions, collisions, or faulty payload assembly.

Loading next visibility...
Identifier
35503, 1965-108DJ
Orbit
HEO
Country
Flag of USUS
Related business
Manufacturer
Unknown
Mission
Spacecraft
Bus & Motor
Unknown
Mass
Unknown
Launch date (UTC)
1965-12-21 (61 years ago)
Launch vehicle
Unknown
Launch site
Air Force Eastern Test Range (AFETR)
Object type
Payload
Rocket body
Debris
Shape & HBR
Unknown shape, 1.1 m
Radar Cross Section
Medium (>0.1 m² and <1 m²)

Expand to show TLE details & history
Last TLE update: 1 week ago

TLE from 1 week ago
0 TITAN 3C TRANSTAGE DEB
1 35503U 65108DJ  26248.34718711 -.00000118  00000-0 -46175-2 0  9997
2 35503  26.4127 267.1733 6791139 159.5595 353.5645  2.60397835209313
Epoch: 2026-09-05T08:19Z
TLE epoch observation values (Epoch: 2026-09-05T08:19:56.966Z)
Latitude
23.40362°
Longitude
-82.52404°
Altitude
1,648.611 km
Speed
9.027 km/s
True Right ascension
01h 47m 41s
True Declination
23° 17' 33"
Sunlit
Object was in full shadow at epoch
Visualization orbit readout
Latitude
Unknown
Longitude
Unknown
Altitude
Unknown
Speed
Unknown
Apparent Right ascension
Unknown
Apparent Declination
Unknown
Sunlit
N/A
Visualization observer readout
Local Sidereal Time
16:03:49
Azimuth
Unknown
Elevation
Unknown
Doppler factor
Unknown
Orbital elements
Apogee altitude
31,101.234 km
Perigee altitude
784.337 km
Semi-major axis
22,320.923 km
Eccentricity
0.67911
Inclination
26.4127°
RAAN
267.1733°
Arg. of periapsis
159.5595°
True anomaly
317.51522°
Mean anomaly
353.5645°
Eccentric anomaly
340.71132°
Mean motion
0.65084 °/min
Orbital period
553.13 mins
BSTAR
-0.0046175
Loading maneuver chart data...
Computing Atmospheric mass density...

Documentation

Showing up to 5 results
|